Back to catalog

ATLAS 5 CENTAUR R/B

AliveMEO
NORAD 53962·ROCKET BODY·🇺🇸 United States

Launched Oct 4, 2022 from Cape Canaveral Space Force Station

Loading…

Next Passes (next 24 hours)

TLE

FreshSource: Space-Track

Epoch: Sep 14, 2026, 12:43 UTC

1 53962U 22123C   26257.53003308 -.00000192  00000-0  00000-0 0  9992
2 53962   4.5878  96.9234 0307074 298.9227  58.3099  1.07591322 15518

Track ATLAS 5 CENTAUR R/B in real time with AllMySat

Download on the App Store